GW2273 Weather Reports


time (UTC)temp
C
wind
direction
speed
KPH
gust
KPH
rain 1hr
cm
rain 24hr
cm
rain mn
cm
humidity
%
barometer
mb
20260510045003 22 101 16.1 27.4 0.00 0.00 0.00 70 1007.9
20260510044503 22 101 17.7 29.0 0.00 0.00 0.00 69 1007.8
20260510044003 22 99 17.7 29.0 0.00 0.00 0.00 69 1007.8
20260510043503 22 99 14.5 27.4 0.00 0.00 0.00 68 1007.8
20260510043003 23 100 12.9 22.5 0.00 0.00 0.00 67 1007.8
20260510042503 23 98 12.9 22.5 0.00 0.00 0.00 66 1007.7
20260510042003 23 99 12.9 22.5 0.00 0.00 0.00 65 1007.6
20260510041503 23 102 12.9 22.5 0.00 0.00 0.00 65 1007.5
20260510041003 23 104 12.9 20.9 0.00 0.00 0.00 65 1007.4
20260510040503 23 106 12.9 22.5 0.00 0.00 0.00 65 1007.3
20260510040024 23 108 11.3 22.5 0.00 0.00 0.00 64 1007.3
20260510035503 23 106 11.3 20.9 0.00 0.00 0.00 64 1007.2
20260510035003 23 108 11.3 20.9 0.00 0.00 0.00 64 1007.2
20260510034503 23 106 11.3 19.3 0.00 0.00 0.00 64 1007.2
20260510034003 23 102 9.7 19.3 0.00 0.00 0.00 64 1007.0
20260510033503 24 101 11.3 17.7 0.00 0.00 0.00 64 1007.1
20260510033003 24 99 12.9 17.7 0.00 0.00 0.00 63 1007.0
20260510032503 24 100 11.3 17.7 0.00 0.00 0.00 63 1006.7
20260510032024 24 98 11.3 19.3 0.00 0.00 0.00 63 1006.7
20260510031503 24 97 12.9 19.3 0.00 0.00 0.00 62 1006.6
20260510031003 24 99 12.9 19.3 0.00 0.00 0.00 62 1006.6
20260510030503 24 98 12.9 24.1 0.00 0.00 0.00 62 1006.7
20260510030024 25 98 12.9 24.1 0.00 0.00 0.00 61 1006.5
20260510025503 25 95 12.9 22.5 0.00 0.00 0.00 61 1006.4
20260510025003 25 96 12.9 22.5 0.00 0.00 0.00 61 1006.3
20260510024503 25 94 12.9 22.5 0.00 0.00 0.00 61 1006.3
20260510024003 25 94 12.9 20.9 0.00 0.00 0.00 61 1006.1
20260510023503 25 97 14.5 24.1 0.00 0.00 0.00 61 1005.9
20260510023003 25 98 14.5 24.1 0.00 0.00 0.00 61 1005.6
20260510022503 25 99 14.5 27.4 0.00 0.00 0.00 60 1005.4
20260510022003 25 102 14.5 27.4 0.00 0.00 0.00 60 1005.2
20260510021524 25 103 14.5 24.1 0.00 0.00 0.00 60 1005.1
20260510021003 25 105 16.1 25.7 0.00 0.00 0.00 60 1005.1
20260510020503 25 105 16.1 25.7 0.00 0.00 0.00 59 1005.0
20260510020003 26 102 16.1 24.1 0.00 0.00 0.00 58 1004.9
20260510015503 26 104 16.1 24.1 0.00 0.00 0.00 58 1004.7
20260510015003 26 105 16.1 29.0 0.00 0.00 0.00 57 1004.8
20260510014503 26 104 17.7 29.0 0.00 0.00 0.00 57 1004.7
20260510014003 26 106 16.1 29.0 0.00 0.00 0.00 56 1004.6
20260510013503 26 106 14.5 24.1 0.00 0.00 0.00 56 1004.7
20260510013003 26 106 14.5 24.1 0.00 0.00 0.00 55 1004.5
20260510012503 27 105 14.5 29.0 0.00 0.00 0.00 54 1004.5
20260510012003 27 107 16.1 29.0 0.00 0.00 0.00 53 1004.5
20260510011503 27 108 14.5 22.5 0.00 0.00 0.00 52 1004.4
20260510011003 27 106 14.5 25.7 0.00 0.00 0.00 52 1004.4
20260510010524 27 113 14.5 25.7 0.00 0.00 0.00 51 1004.4
20260510010003 27 115 16.1 32.2 0.00 0.00 0.00 51 1004.4
20260510005524 27 110 16.1 32.2 0.00 0.00 0.00 51 1004.4
20260510005003 27 110 16.1 27.4 0.00 0.00 0.00 51 1004.3
20260510004503 28 112 16.1 35.4 0.00 0.00 0.00 50 1004.2
20260510004003 28 111 16.1 35.4 0.00 0.00 0.00 50 1004.3
20260510003503 28 115 17.7 32.2 0.00 0.00 0.00 50 1004.3
20260510003003 28 115 17.7 35.4 0.00 0.00 0.00 50 1004.3
20260510002503 28 116 19.3 40.2 0.00 0.00 0.00 50 1004.4
20260510002003 28 116 19.3 40.2 0.00 0.00 0.00 50 1004.3
20260510001503 28 110 17.7 38.6 0.00 0.00 0.00 50 1004.2
20260510001024 28 106 17.7 32.2 0.00 0.00 0.00 50 1004.2
20260510000503 28 111 17.7 33.8 0.00 0.00 0.00 50 1004.5
20260510000003 28 116 17.7 33.8 0.00 0.00 0.00 50 1004.6
20260509235503 28 110 19.3 33.8 0.00 0.00 0.00 50 1004.6
20260509235024 28 106 19.3 38.6 0.00 0.00 0.00 50 1004.7
20260509234503 28 112 16.1 38.6 0.00 0.00 0.00 50 1004.9
20260509234003 28 112 16.1 29.0 0.00 0.00 0.00 51 1004.7
20260509233503 28 111 17.7 29.0 0.00 0.00 0.00 53 1004.5
20260509233024 28 117 17.7 33.8 0.00 0.00 0.00 53 1004.6
20260509232524 28 117 19.3 33.8 0.00 0.00 0.00 53 1004.5
20260509232003 27 112 17.7 32.2 0.00 0.00 0.00 55 1004.5
20260509231503 27 110 20.9 45.1 0.00 0.00 0.00 57 1004.4
20260509231003 28 117 19.3 45.1 0.00 0.00 0.00 53 1004.6
20260509230503 28 125 17.7 40.2 0.00 0.00 0.00 50 1005.0
20260509230003 28 134 20.9 37.0 0.00 0.00 0.00 49 1005.0
20260509225503 30 130 20.9 41.8 0.00 0.00 0.00 48 1004.9
20260509225003 30 114 17.7 41.8 0.00 0.00 0.00 48 1004.8
20260509224503 29 114 16.1 35.4 0.00 0.00 0.00 50 1005.0
20260509224003 29 113 16.1 27.4 0.00 0.00 0.00 50 1005.2
20260509223503 29 108 16.1 27.4 0.00 0.00 0.00 49 1005.2
20260509223003 30 116 16.1 27.4 0.00 0.00 0.00 51 1005.3
20260509222503 29 121 17.7 35.4 0.00 0.00 0.00 51 1005.5
20260509222024 30 115 17.7 35.4 0.00 0.00 0.00 47 1005.4
20260509221503 30 110 20.9 45.1 0.00 0.00 0.00 45 1005.3
20260509221003 30 111 22.5 45.1 0.00 0.00 0.00 45 1005.2
20260509220503 30 113 19.3 33.8 0.00 0.00 0.00 44 1005.2
20260509220003 31 112 20.9 35.4 0.00 0.00 0.00 43 1005.2
20260509215503 31 112 20.9 37.0 0.00 0.00 0.00 42 1005.3
20260509215003 31 109 19.3 37.0 0.00 0.00 0.00 41 1005.4
20260509214503 32 113 17.7 29.0 0.00 0.00 0.00 41 1005.5
20260509214003 32 119 17.7 29.0 0.00 0.00 0.00 40 1005.6
20260509213503 32 127 16.1 32.2 0.00 0.00 0.00 40 1005.6
20260509213003 32 118 17.7 32.2 0.00 0.00 0.00 40 1005.7
20260509212503 32 126 17.7 41.8 0.00 0.00 0.00 40 1005.8
20260509212003 32 143 16.1 41.8 0.00 0.00 0.00 39 1006.0
20260509211503 32 135 16.1 32.2 0.00 0.00 0.00 37 1006.2
20260509211024 32 141 17.7 32.2 0.00 0.00 0.00 38 1006.3
20260509210503 32 150 16.1 30.6 0.00 0.00 0.00 39 1006.3
20260509210003 31 152 14.5 30.6 0.00 0.00 0.00 41 1006.5
20260509205503 31 140 16.1 38.6 0.00 0.00 0.00 41 1006.7
20260509205003 32 149 17.7 38.6 0.00 0.00 0.00 40 1006.8
20260509204524 32 159 17.7 38.6 0.00 0.00 0.00 40 1006.8
20260509204003 32 155 17.7 32.2 0.00 0.00 0.00 40 1007.0
20260509203503 31 160 19.3 37.0 0.00 0.00 0.00 41 1007.0
20260509203003 31 159 17.7 37.0 0.00 0.00 0.00 41 1007.2
20260509202503 31 152 16.1 32.2 0.00 0.00 0.00 43 1007.3
20260509202003 31 146 16.1 30.6 0.00 0.00 0.00 42 1007.3
20260509201503 31 145 16.1 30.6 0.00 0.00 0.00 43 1007.6
20260509201003 31 149 16.1 30.6 0.00 0.00 0.00 42 1007.8
20260509200503 30 151 14.5 27.4 0.00 0.00 0.00 43 1007.9
20260509200003 30 155 12.9 29.0 0.00 0.00 0.00 43 1008.1
20260509195503 30 160 14.5 29.0 0.00 0.00 0.00 43 1008.2
20260509195024 30 162 16.1 32.2 0.00 0.00 0.00 43 1008.3
20260509194503 30 156 17.7 33.8 0.00 0.00 0.00 44 1008.4
20260509194024 30 146 17.7 33.8 0.00 0.00 0.00 44 1008.4
20260509193503 30 149 16.1 38.6 0.00 0.00 0.00 44 1008.5
20260509193003 30 154 17.7 38.6 0.00 0.00 0.00 45 1008.5
20260509192503 30 153 16.1 29.0 0.00 0.00 0.00 44 1008.7
20260509192003 30 156 16.1 37.0 0.00 0.00 0.00 43 1008.8
20260509191503 30 155 16.1 37.0 0.00 0.00 0.00 44 1008.9
20260509191003 30 148 17.7 35.4 0.00 0.00 0.00 45 1008.9
20260509190503 29 156 16.1 33.8 0.00 0.00 0.00 46 1009.1
20260509190003 29 154 16.1 30.6 0.00 0.00 0.00 47 1009.0
20260509185503 29 151 17.7 30.6 0.00 0.00 0.00 46 1009.1
20260509185003 28 165 17.7 33.8 0.00 0.00 0.00 47 1009.2
20260509184503 28 153 16.1 33.8 0.00 0.00 0.00 48 1009.3
20260509184003 28 145 16.1 33.8 0.00 0.00 0.00 47 1009.4
20260509183503 28 154 14.5 33.8 0.00 0.00 0.00 49 1009.5
20260509183003 28 142 12.9 25.7 0.00 0.00 0.00 48 1009.6
20260509182503 28 139 12.9 24.1 0.00 0.00 0.00 49 1009.8
20260509182024 28 154 14.5 27.4 0.00 0.00 0.00 50 1009.8
20260509181503 28 152 14.5 29.0 0.00 0.00 0.00 50 1010.0
20260509181003 28 144 12.9 29.0 0.00 0.00 0.00 51 1010.0
20260509180503 27 148 14.5 33.8 0.00 0.00 0.00 52 1010.1
20260509180003 27 145 12.9 33.8 0.00 0.00 0.00 52 1010.2
20260509175503 27 146 12.9 29.0 0.00 0.00 0.00 53 1010.3
20260509175003 27 154 14.5 29.0 0.00 0.00 0.00 54 1010.4
20260509174503 27 161 14.5 27.4 0.00 0.00 0.00 53 1010.6
20260509174024 27 148 14.5 27.4 0.00 0.00 0.00 56 1010.5
20260509173503 27 149 12.9 25.7 0.00 0.00 0.00 53 1010.6
20260509173003 27 163 9.7 25.7 0.00 0.00 0.00 54 1010.7
20260509172503 27 152 11.3 27.4 0.00 0.00 0.00 56 1010.8
20260509172003 26 153 11.3 27.4 0.00 0.00 0.00 55 1010.9
20260509171524 26 171 9.7 20.9 0.00 0.00 0.00 56 1011.0
20260509171003 27 174 9.7 25.7 0.00 0.00 0.00 55 1011.1
20260509170503 26 160 11.3 25.7 0.00 0.00 0.00 55 1011.1
20260509170003 26 138 9.7 22.5 0.00 0.00 0.00 56 1011.2
20260509165503 26 129 8.0 16.1 0.00 0.00 0.00 56 1011.2
20260509165003 26 150 8.0 19.3 0.00 0.00 0.00 57 1011.2
20260509164503 26 125 8.0 19.3 0.00 0.00 0.00 57 1011.3
20260509164024 26 125 6.4 16.1 0.00 0.00 0.00 59 1011.3
20260509163503 25 169 4.8 16.1 0.00 0.00 0.00 60 1011.4
20260509163003 25 143 8.0 16.1 0.00 0.00 0.00 60 1011.4
20260509162503 25 108 6.4 14.5 0.00 0.00 0.00 61 1011.5
20260509162024 25 98 6.4 14.5 0.00 0.00 0.00 61 1011.6
20260509161503 25 104 6.4 14.5 0.00 0.00 0.00 61 1011.6
20260509161003 25 136 3.2 11.3 0.00 0.00 0.00 61 1011.7
20260509160503 25 140 4.8 14.5 0.00 0.00 0.00 62 1011.7
20260509160024 25 119 4.8 14.5 0.00 0.00 0.00 62 1011.8
20260509155503 25 117 3.2 12.9 0.00 0.00 0.00 62 1011.7
20260509155003 25 149 4.8 12.9 0.00 0.00 0.00 63 1011.8
20260509154503 24 236 4.8 11.3 0.00 0.00 0.00 64 1011.7
20260509154003 24 235 4.8 12.9 0.00 0.00 0.00 65 1011.8
20260509153503 23 161 6.4 12.9 0.00 0.00 0.00 66 1011.8
20260509153003 23 113 4.8 12.9 0.00 0.00 0.00 66 1011.9
20260509152503 23 139 4.8 11.3 0.00 0.00 0.00 68 1012.0
20260509152003 23 173 6.4 11.3 0.00 0.00 0.00 68 1012.0
20260509151524 23 183 4.8 16.1 0.00 0.00 0.00 67 1012.0
20260509151003 23 186 4.8 16.1 0.00 0.00 0.00 68 1012.1
20260509150503 23 179 4.8 14.5 0.00 0.00 0.00 68 1012.1
20260509150003 22 179 3.2 9.7 0.00 0.00 0.00 69 1012.2
20260509145524 22 178 4.8 11.3 0.00 0.00 0.00 71 1012.1
20260509145003 22 176 6.4 14.5 0.00 0.00 0.00 71 1012.1
20260509144503 22 177 4.8 16.1 0.00 0.00 0.00 72 1012.0
20260509144003 22 249 3.2 16.1 0.00 0.00 0.00 72 1011.9
20260509143503 22 344 3.2 6.4 0.00 0.00 0.00 71 1012.0
20260509143003 22 344 1.6 4.8 0.00 0.00 0.00 71 1012.0
20260509142503 21 344 1.6 3.2 0.00 0.00 0.00 74 1012.1
20260509142024 21 344 0.0 3.2 0.00 0.00 0.00 75 1012.0
20260509141503 21 344 0.0 3.2 0.00 0.00 0.00 75 1012.1
20260509141003 21 344 0.0 3.2 0.00 0.00 0.00 77 1012.1
20260509140503 20 344 1.6 3.2 0.00 0.00 0.00 78 1012.2
20260509140004 20 344 0.0 3.2 0.00 0.00 0.00 79 1012.2
20260509135503 20 344 0.0 3.2 0.00 0.00 0.00 81 1012.2
20260509135003 19 344 0.0 3.2 0.00 0.00 0.00 82 1012.3
20260509134503 18 344 1.6 3.2 0.00 0.00 0.00 84 1012.3
20260509134003 18 344 1.6 3.2 0.00 0.00 0.00 85 1012.3
20260509133503 18 344 0.0 3.2 0.00 0.00 0.00 87 1012.2
20260509133003 17 344 0.0 3.2 0.00 0.00 0.00 89 1012.2
20260509132503 17 0 0.0 0.0 0.00 0.00 0.00 89 1012.3
20260509132003 16 0 0.0 0.0 0.00 0.00 0.00 90 1012.3
20260509131503 16 0 0.0 0.0 0.00 0.00 0.00 90 1012.3
20260509131003 16 0 0.0 0.0 0.00 0.00 0.00 90 1012.3
20260509130503 15 0 0.0 0.0 0.00 0.00 0.00 90 1012.3
20260509130003 15 344 0.0 3.2 0.00 0.00 0.00 91 1012.3
20260509125524 15 344 0.0 3.2 0.00 0.00 0.00 92 1012.2
20260509125003 15 344 0.0 1.6 0.00 0.00 0.00 92 1012.2
20260509124503 14 344 0.0 3.2 0.00 0.00 0.00 92 1012.2
20260509124024 14 344 0.0 3.2 0.00 0.00 0.00 93 1012.2
20260509123503 14 344 0.0 1.6 0.00 0.00 0.00 94 1012.0
20260509123003 13 344 0.0 1.6 0.00 0.00 0.00 93 1011.8
20260509122524 13 344 0.0 3.2 0.00 0.00 0.00 93 1011.7
20260509122003 13 344 0.0 3.2 0.00 0.00 0.00 93 1011.7
20260509121503 13 0 0.0 0.0 0.00 0.00 0.00 93 1011.7
20260509121024 13 0 0.0 0.0 0.00 0.00 0.00 93 1011.7
20260509120503 13 0 0.0 0.0 0.00 0.00 0.00 93 1011.6
20260509120003 13 0 0.0 0.0 0.00 0.00 0.00 93 1011.5
20260509115524 13 0 0.0 0.0 0.00 0.00 0.00 93 1011.4
20260509115003 13 0 0.0 0.0 0.00 0.00 0.00 93 1011.5
20260509114503 13 0 0.0 0.0 0.00 0.00 0.00 93 1011.4
20260509114003 13 0 0.0 0.0 0.00 0.00 0.00 93 1011.3
20260509113503 13 0 0.0 0.0 0.00 0.00 0.00 93 1011.3
20260509113003 13 0 0.0 0.0 0.00 0.00 0.00 93 1011.2
20260509112503 13 344 0.0 3.2 0.00 0.00 0.00 93 1011.2
20260509112003 13 344 1.6 4.8 0.00 0.00 0.00 93 1011.2
20260509111503 13 344 1.6 4.8 0.00 0.00 0.00 94 1011.0
20260509111003 13 344 0.0 4.8 0.00 0.00 0.00 93 1011.1
20260509110503 13 344 0.0 3.2 0.00 0.00 0.00 93 1011.1
20260509110003 13 344 1.6 4.8 0.00 0.00 0.00 93 1011.1
20260509105524 13 344 3.2 6.4 0.00 0.00 0.00 93 1011.1
20260509105003 13 344 3.2 6.4 0.00 0.00 0.00 93 1011.1
20260509104503 13 344 3.2 6.4 0.00 0.00 0.00 93 1011.0
20260509104003 13 344 1.6 6.4 0.00 0.00 0.00 93 1010.9
20260509103503 13 344 1.6 4.8 0.00 0.00 0.00 93 1010.8
20260509103003 13 344 1.6 6.4 0.00 0.00 0.00 93 1010.7
20260509102503 13 344 3.2 6.4 0.00 0.00 0.00 93 1010.7
20260509102003 13 344 3.2 6.4 0.00 0.00 0.00 93 1010.7
20260509101503 13 344 3.2 8.0 0.00 0.00 0.00 93 1010.7
20260509101003 14 344 3.2 8.0 0.00 0.00 0.00 93 1010.7
20260509100524 14 344 3.2 8.0 0.00 0.00 0.00 93 1010.6
20260509100003 14 344 3.2 6.4 0.00 0.00 0.00 92 1010.6
20260509095503 14 343 3.2 6.4 0.00 0.00 0.00 93 1010.5
20260509095024 14 343 3.2 6.4 0.00 0.00 0.00 92 1010.6
20260509094503 15 347 3.2 8.0 0.00 0.00 0.00 92 1010.6
20260509094003 15 358 3.2 8.0 0.00 0.00 0.00 92 1010.6
20260509093503 15 30 1.6 6.4 0.00 0.00 0.00 92 1010.5
20260509093003 15 147 1.6 6.4 0.00 0.00 0.00 92 1010.3
20260509092503 15 150 1.6 4.8 0.00 0.00 0.00 92 1010.3
20260509092024 15 150 1.6 4.8 0.00 0.00 0.00 91 1010.3
20260509091503 15 150 1.6 4.8 0.00 0.00 0.00 91 1010.5
20260509091024 15 150 1.6 4.8 0.00 0.00 0.00 91 1010.5
20260509090503 15 150 1.6 4.8 0.00 0.00 0.00 91 1010.3
20260509090003 16 150 0.0 3.2 0.00 0.00 0.00 90 1010.3
20260509085503 16 150 0.0 3.2 0.00 0.00 0.00 90 1010.5
20260509085003 16 150 0.0 3.2 0.00 0.00 0.00 90 1010.5
20260509084503 16 150 0.0 3.2 0.00 0.00 0.00 90 1010.5
20260509084003 16 150 1.6 4.8 0.00 0.00 0.00 89 1010.5
20260509083503 16 150 1.6 4.8 0.00 0.00 0.00 89 1010.6
20260509083003 16 150 1.6 3.2 0.00 0.00 0.00 89 1010.5
20260509082503 16 150 0.0 3.2 0.00 0.00 0.00 89 1010.6
20260509082003 16 0 0.0 0.0 0.00 0.00 0.00 88 1010.7
20260509081503 16 150 0.0 3.2 0.00 0.00 0.00 89 1010.7
20260509081024 16 150 0.0 3.2 0.00 0.00 0.00 89 1010.7
20260509080503 17 150 0.0 1.6 0.00 0.00 0.00 88 1010.7
20260509080003 17 150 1.6 4.8 0.00 0.00 0.00 88 1010.8
20260509075503 17 150 1.6 4.8 0.00 0.00 0.00 88 1010.8
20260509075003 17 150 1.6 4.8 0.00 0.00 0.00 88 1010.7
20260509074503 17 150 1.6 8.0 0.00 0.00 0.00 88 1010.7
20260509074003 17 150 1.6 8.0 0.00 0.00 0.00 88 1010.8
20260509073503 17 150 1.6 8.0 0.00 0.00 0.00 88 1010.8
20260509073003 17 150 3.2 8.0 0.00 0.00 0.00 88 1010.8
20260509072503 17 150 1.6 8.0 0.00 0.00 0.00 88 1010.9
20260509072003 17 150 1.6 8.0 0.00 0.00 0.00 88 1010.9
20260509071524 17 150 3.2 9.7 0.00 0.00 0.00 88 1010.9
20260509071024 17 150 4.8 9.7 0.00 0.00 0.00 88 1010.9
20260509070503 18 150 4.8 8.0 0.00 0.00 0.00 88 1011.0
20260509070024 18 150 4.8 8.0 0.00 0.00 0.00 87 1010.9
20260509065503 18 150 4.8 9.7 0.00 0.00 0.00 87 1010.8
20260509065003 18 150 4.8 9.7 0.00 0.00 0.00 87 1010.8
20260509064503 18 155 4.8 9.7 0.00 0.00 0.00 87 1010.8
20260509064003 18 163 3.2 9.7 0.00 0.00 0.00 87 1010.8
20260509063524 18 166 4.8 9.7 0.00 0.00 0.00 86 1010.8
20260509063003 18 161 6.4 11.3 0.00 0.00 0.00 86 1010.9
20260509062503 18 154 4.8 11.3 0.00 0.00 0.00 86 1010.9
20260509062003 18 154 4.8 11.3 0.00 0.00 0.00 86 1010.8
20260509061504 18 153 6.4 14.5 0.00 0.00 0.00 86 1010.7
20260509061024 18 153 6.4 14.5 0.00 0.00 0.00 85 1010.7
20260509060503 18 152 6.4 14.5 0.00 0.00 0.00 85 1010.8
20260509060003 18 138 6.4 11.3 0.00 0.00 0.00 85 1010.9
20260509055503 18 123 4.8 11.3 0.00 0.00 0.00 85 1010.8
20260509055003 18 121 4.8 11.3 0.00 0.00 0.00 84 1010.8
20260509054503 19 116 4.8 11.3 0.00 0.00 0.00 84 1010.9
20260509054024 19 140 6.4 11.3 0.00 0.00 0.00 84 1011.0
20260509053503 19 149 6.4 16.1 0.00 0.00 0.00 83 1010.9
20260509053003 19 124 8.0 16.1 0.00 0.00 0.00 83 1010.9
20260509052503 20 113 8.0 16.1 0.00 0.00 0.00 83 1010.9
20260509052003 20 113 9.7 17.7 0.00 0.00 0.00 82 1011.0
20260509051503 20 108 9.7 17.7 0.00 0.00 0.00 82 1011.1
20260509051024 20 104 9.7 17.7 0.00 0.00 0.00 82 1011.1
20260509050503 20 106 9.7 17.7 0.00 0.00 0.00 81 1011.2
20260509050003 20 100 8.0 17.7 0.00 0.00 0.00 80 1011.2
20260509045503 20 95 8.0 14.5 0.00 0.00 0.00 78 1011.3